EW6262 Weather Reports


Display with metric or nautical units.
time (UTC)temp
F
wind
direction
speed
MPH
gust
MPH
rain 1hr
in
rain 24hr
in
rain mn
in
humidity
%
barometer
mb
20260508033010 48 16 0.0 0.0 0.00 0.60 0.00 93 1002.0
20260508031506 48 16 0.0 0.0 0.00 0.60 0.00 94 1002.0
20260508030007 48 16 0.0 0.0 0.00 0.60 0.60 94 1002.0
20260508024504 49 15 0.0 0.0 0.00 0.60 0.60 94 1002.3
20260508023009 49 16 0.0 3.0 0.00 0.60 0.60 95 1001.8
20260508021504 48 16 0.0 0.0 0.00 0.60 0.60 95 1002.0
20260508020002 47 5 0.0 0.0 0.00 0.60 0.60 95 1001.9
20260508014502 47 11 0.0 0.0 0.00 0.60 0.60 95 1002.0
20260508013100 46 11 0.0 0.0 0.00 0.60 0.60 95 1001.6
20260508011607 45 11 0.0 0.0 0.00 0.60 0.60 94 1001.7
20260508010057 46 12 0.0 0.0 0.00 0.60 0.60 94 1001.9
20260508004558 47 12 0.0 0.0 0.00 0.60 0.60 94 1001.9
20260508003056 46 12 0.0 0.0 0.00 0.60 0.60 94 1002.2
20260508001551 48 15 0.0 1.0 0.00 0.60 0.60 93 1002.0
20260508000048 51 16 0.0 0.0 0.00 0.60 0.60 94 1001.7
20260507234557 51 13 0.0 0.0 0.00 0.60 0.60 94 1001.2
20260507233045 52 12 0.0 0.0 0.00 0.60 0.60 94 1001.2
20260507231549 52 12 0.0 0.0 0.00 0.60 0.60 94 1001.4
20260507230046 53 12 0.0 0.0 0.00 0.60 0.60 94 1001.2
20260507224544 53 13 0.0 0.0 0.00 0.60 0.60 94 1001.1
20260507223043 53 13 0.0 0.0 0.00 0.60 0.60 94 1001.0
20260507221545 53 12 0.0 3.0 0.01 0.60 0.60 94 1001.2
20260507220041 53 12 0.0 2.0 0.01 0.60 0.60 94 1001.1
20260507214540 53 11 0.0 10.0 0.01 0.60 0.60 94 1000.5
20260507213040 53 11 3.0 16.0 0.03 0.60 0.60 94 1001.1
20260507211539 53 11 0.0 4.0 0.07 0.59 0.59 94 1001.1
20260507210038 53 13 1.0 14.0 0.13 0.59 0.59 94 1001.1
20260507204536 53 10 2.0 13.0 0.18 0.59 0.59 94 1000.5
20260507203038 54 11 1.0 11.0 0.20 0.56 0.56 93 1001.3
20260507201532 54 11 1.0 9.0 0.22 0.52 0.52 93 1001.8
20260507200041 54 11 0.0 5.0 0.23 0.46 0.46 93 1002.2
20260507194526 55 12 0.0 8.0 0.26 0.41 0.41 93 1003.3
20260507193030 55 11 1.0 10.0 0.28 0.36 0.36 93 1003.3
20260507191524 54 11 0.0 5.0 0.28 0.30 0.30 93 1003.3
20260507190024 54 11 0.0 10.0 0.21 0.22 0.22 92 1003.4
20260507184523 54 11 0.0 5.0 0.13 0.14 0.14 91 1003.7
20260507183033 54 11 1.0 14.0 0.06 0.07 0.07 90 1003.6
20260507181520 56 11 4.0 16.0 0.01 0.02 0.02 88 1003.7
20260507180032 57 11 6.0 20.0 0.00 0.01 0.01 86 1003.2
20260507174519 58 11 6.0 23.0 0.00 0.01 0.01 85 1002.8
20260507173017 58 11 9.0 28.0 0.00 0.01 0.01 84 1002.9
20260507171514 59 12 5.0 24.0 0.00 0.01 0.01 83 1003.2
20260507170018 59 12 10.0 28.0 0.00 0.01 0.01 83 1003.2
20260507164513 59 13 10.0 29.0 0.00 0.01 0.01 83 1003.3
20260507163012 60 13 13.0 28.0 0.00 0.01 0.01 82 1003.8
20260507161509 60 12 10.0 28.0 0.00 0.01 0.01 81 1004.1
20260507160009 60 12 12.0 27.0 0.00 0.01 0.01 82 1004.3
20260507154508 60 12 5.0 26.0 0.00 0.01 0.01 82 1004.9
20260507153011 60 11 7.0 32.0 0.00 0.01 0.01 82 1004.7
20260507151505 59 12 6.0 28.0 0.00 0.01 0.01 83 1005.1
20260507150005 59 13 9.0 26.0 0.00 0.01 0.01 83 1005.6
20260507144501 59 11 9.0 30.0 0.00 0.01 0.01 83 1006.0
20260507143107 59 12 8.0 26.0 0.00 0.01 0.01 83 1006.1
20260507141601 59 11 15.0 35.0 0.00 0.01 0.01 82 1006.3
20260507140100 61 12 8.0 31.0 0.00 0.01 0.01 81 1006.5
20260507134559 60 11 6.0 30.0 0.00 0.01 0.01 82 1006.5
20260507133100 60 13 11.0 25.0 0.00 0.01 0.01 83 1006.3
20260507131613 60 13 7.0 28.0 0.00 0.01 0.01 84 1006.5
20260507130055 59 11 6.0 19.0 0.00 0.01 0.01 86 1006.8
20260507124553 58 12 9.0 32.0 0.01 0.01 0.01 88 1006.8
20260507123048 57 11 11.0 33.0 0.01 0.01 0.01 90 1007.1
20260507121545 56 12 9.0 33.0 0.01 0.01 0.01 90 1007.4
20260507120042 56 11 8.0 27.0 0.01 0.01 0.01 90 1008.1
20260507114541 57 13 13.0 27.0 0.00 0.00 0.00 88 1008.4
20260507113038 57 13 6.0 28.0 0.00 0.00 0.00 88 1008.8
20260507111537 56 12 2.0 20.0 0.00 0.00 0.00 90 1009.1
20260507110046 54 11 3.0 15.0 0.00 0.00 0.00 92 1009.3
20260507104533 54 11 0.0 14.0 0.00 0.00 0.00 92 1009.3
20260507103032 52 11 0.0 15.0 0.00 0.00 0.00 92 1009.9
20260507101540 52 12 0.0 9.0 0.00 0.00 0.00 91 1009.7
20260507100034 52 12 0.0 8.0 0.00 0.00 0.00 91 1010.4
20260507094528 52 5 0.0 13.0 0.00 0.00 0.00 91 1010.5
20260507093027 52 11 2.0 15.0 0.00 0.00 0.00 91 1011.2
20260507091524 52 11 2.0 15.0 0.00 0.00 0.00 92 1010.8
20260507090031 52 11 4.0 18.0 0.00 0.00 0.00 91 1010.8
20260507084531 53 12 3.0 19.0 0.00 0.00 0.00 91 1010.3
20260507083016 53 11 2.0 14.0 0.00 0.00 0.00 91 1010.8
20260507081515 53 11 5.0 21.0 0.00 0.00 0.00 90 1010.8
20260507080010 53 12 4.0 25.0 0.00 0.00 0.00 88 1011.1
20260507074522 53 11 1.0 11.0 0.00 0.00 0.00 87 1011.2
20260507073005 54 12 1.0 10.0 0.00 0.00 0.00 86 1011.5
20260507071502 54 13 2.0 15.0 0.00 0.00 0.00 84 1012.0
20260507070108 55 11 2.0 13.0 0.00 0.00 0.00 82 1011.5
20260507064600 56 11 1.0 13.0 0.00 0.00 0.00 80 1011.8
20260507063058 56 11 0.0 2.0 0.00 0.00 0.00 80 1011.9
20260507061553 55 11 0.0 1.0 0.00 0.00 0.00 79 1012.4
20260507054555 54 15 0.0 0.0 0.00 0.00 0.00 75 1012.6
20260507053052 55 16 0.0 0.0 0.00 0.00 0.00 70 1012.9
20260507051543 58 17 0.0 2.0 0.00 0.00 0.00 69 1013.4
20260507050043 58 11 0.0 2.0 0.00 0.00 0.00 70 1013.6
20260507044539 58 13 0.0 5.0 0.00 0.00 0.00 70 1013.8
20260507043037 57 13 0.0 12.0 0.00 0.00 0.00 74 1014.0
20260507041534 56 11 0.0 0.0 0.00 0.00 0.00 75 1014.5
20260507040034 56 9 0.0 0.0 0.00 0.00 0.00 75 1014.7
20260507034548 57 11 0.0 2.0 0.00 0.00 0.00 73 1014.8